Location: Unspecified
(38.0989°N, 0.6729°W)
Time: 18:18:56
(UTC+01:00)

Amateur Radio Satellites - All Passes

Search period start: 20 November 2017 17:48
Search period end: 21 November 2017 17:48
Location: Unspecified, 38.0989°N, 0.6729°W

Satellite Date Start Highest point End Downlink Frequencies (MHz)
Time Altitude Azimuth
CUTE-I 20 Nov 17:51:05 17:55:52 34° 69° (ENE) 18:00:41 437.470
CUBESAT XI-V 20 Nov 17:53:40 17:58:06 42° 288° (WNW) 18:02:31 437.345
KAITUO 1B 20 Nov 18:03:41 18:06:57 31° 72° (ENE) 18:10:15 145.475/437.950
KKS-1 20 Nov 18:07:17 18:11:42 58° 101° (E) 18:16:04 437.445
RS-15 20 Nov 18:09:12 18:18:51 29° 102° (ESE) 18:28:30 29.354- 29.394
XW-2D 20 Nov 18:15:32 18:19:14 70° 75° (ENE) 18:22:58 145.860 - 145.880
XW-2B 20 Nov 18:30:18 18:34:01 77° 258° (WSW) 18:37:46 145.730 - 145.750
STARS 20 Nov 18:34:29 18:38:42 43° 99° (E) 18:42:51 437.465
CUTE 1.7 + AOD 2 20 Nov 18:38:32 18:42:04 27° 70° (ENE) 18:45:37 437.475
UWE-3 20 Nov 18:49:14 18:51:06 12° 65° (ENE) 18:52:56 435.000/436.395/437.385
NUDT-PHONESAT 20 Nov 18:49:42 18:53:17 61° 259° (W) 18:56:54 437.300
XW-2C 20 Nov 18:56:15 18:59:38 33° 263° (W) 19:03:03 145.795 - 145.815
LilacSat-2 20 Nov 18:57:06 19:00:25 30° 263° (W) 19:03:46 437.200
SRMSAT 20 Nov 19:06:28 19:07:16 10° 171° (S) 19:08:04 437.500
XW-2F 20 Nov 19:08:11 19:11:18 25° 264° (W) 19:14:26 145.980 - 146.000
SEEDS 20 Nov 19:10:33 19:14:24 37° 72° (ENE) 19:18:16 437.485
JUGNU 20 Nov 19:11:46 19:12:50 10° 188° (S) 19:13:54 437.505
HO-68 20 Nov 19:17:07 19:24:19 87° 74° (ENE) 19:31:34 435.675
AAUSAT CUBESAT 2 20 Nov 19:21:06 19:24:12 21° 69° (ENE) 19:27:18 437.432
CUBEBUG 2 20 Nov 19:23:43 19:28:14 54° 74° (ENE) 19:32:37 437.445
CUTE-I 20 Nov 19:31:21 19:35:53 28° 264° (W) 19:40:28 437.470
YUBILEINY 20 Nov 19:32:14 19:38:57 25° 278° (W) 19:45:41 435.215
AO-73 20 Nov 19:32:26 19:35:08 17° 67° (ENE) 19:37:48 145.935
KAITUO 1B 20 Nov 19:39:01 19:41:00 14° 267° (W) 19:43:00 145.475/437.950
KKS-1 20 Nov 19:45:42 19:47:43 13° 297° (WNW) 19:49:44 437.445
Oscar 11 20 Nov 19:49:47 19:52:35 17° 67° (ENE) 19:55:24 .
STRAND 1 20 Nov 20:02:39 20:07:26 39° 98° (E) 20:12:09 437.568
STARS 20 Nov 20:11:58 20:14:38 16° 295° (WNW) 20:17:18 437.465
CUTE 1.7 + AOD 2 20 Nov 20:14:34 20:17:50 22° 265° (W) 20:21:08 437.475
ZACube-1 20 Nov 20:15:07 20:19:25 57° 74° (ENE) 20:23:36 437.345
RS-15 20 Nov 20:17:47 20:30:07 79° 302° (WNW) 20:42:27 29.354- 29.394
FO-29 20 Nov 20:19:48 20:25:21 21° 89° (E) 20:30:38 435.910
UWE-3 20 Nov 20:22:38 20:27:03 58° 259° (W) 20:31:23 435.000/436.395/437.385
XW-2A 20 Nov 20:26:24 20:29:34 42° 261° (W) 20:32:45 145.665 - 145.685
SEEDS 20 Nov 20:47:42 20:50:12 16° 267° (W) 20:52:43 437.485
SRMSAT 20 Nov 20:53:04 20:55:33 13° 181° (S) 20:58:00 437.500
AAUSAT CUBESAT 2 20 Nov 20:55:55 20:59:27 28° 264° (W) 21:03:02 437.432
CUBEBUG 2 20 Nov 21:02:56 21:05:05 13° 268° (W) 21:07:11 437.445
AO-73 20 Nov 21:06:59 21:11:02 39° 262° (W) 21:15:03 145.935
HO-68 20 Nov 21:08:57 21:12:49 15° 270° (W) 21:16:40 435.675
nSIGHT-1 20 Nov 21:15:59 21:18:57 35° 134° (SE) 21:21:55 .
Max Valier Satellite 20 Nov 21:17:23 21:20:03 19° 70° (ENE) 21:22:44 145.860
EO-88 20 Nov 21:18:34 21:20:28 14° 68° (ENE) 21:22:24 145.990 - 145.960
Oscar 11 20 Nov 21:24:25 21:28:24 38° 262° (W) 21:32:25 .
DELFI C3 20 Nov 21:33:59 21:37:48 50° 74° (ENE) 21:41:40 145.870
SO-50 20 Nov 21:37:59 21:40:31 15° 109° (ESE) 21:43:04 436.795
STRAND 1 20 Nov 21:42:22 21:46:20 23° 294° (WNW) 21:50:18 437.568
ZACube-1 20 Nov 21:54:51 21:55:58 11° 269° (W) 21:57:04 437.345
UNISAT 6 20 Nov 21:55:30 21:58:18 17° 93° (E) 22:01:05 437.425
ISS 20 Nov 21:56:59 22:00:14 83° 141° (SE) 22:03:31 437.550
TIGRISAT 20 Nov 22:00:04 22:02:54 17° 93° (E) 22:05:42 435.000
FO-29 20 Nov 22:03:09 22:11:01 75° 287° (WNW) 22:18:22 435.910
NO-84 20 Nov 22:05:29 22:08:24 18° 28° (NNE) 22:11:20 435.350 FM
ESTCUBE 1 20 Nov 22:31:10 22:33:11 13° 64° (ENE) 22:35:13 437.505/2401.250
RS-15 20 Nov 22:34:54 22:44:56 28° 328° (NNW) 22:54:53 29.354- 29.394
EO-88 20 Nov 22:50:33 22:53:48 32° 262° (W) 22:57:06 145.990 - 145.960
Max Valier Satellite 20 Nov 22:50:47 22:53:43 23° 264° (W) 22:56:39 145.860
nSIGHT-1 20 Nov 22:52:32 22:55:14 24° 331° (NNW) 22:57:55 .
PRISM 20 Nov 23:08:43 23:12:37 38° 99° (E) 23:16:28 437.425
DELFI C3 20 Nov 23:12:01 23:12:48 10° 269° (W) 23:13:38 145.870
SO-50 20 Nov 23:16:10 23:20:30 51° 305° (NW) 23:24:54 436.795
LO-87 20 Nov 23:17:01 23:20:32 53° 75° (ENE) 23:24:04 145.935 - 145.965
UNISAT 6 20 Nov 23:31:13 23:35:08 35° 288° (WNW) 23:39:00 437.425
ISS 20 Nov 23:34:57 23:37:05 16° 337° (NNW) 23:39:12 437.550
TIGRISAT 20 Nov 23:35:49 23:39:41 35° 288° (WNW) 23:43:31 435.000
O/OREOS (USA 219) 20 Nov 23:37:50 23:41:39 26° 61° (ENE) 23:45:27 437.305
NO-84 20 Nov 23:42:01 23:46:18 88° 37° (NE) 23:50:31 435.350 FM
FO-29 20 Nov 23:50:33 23:54:38 15° 305° (NW) 23:58:39 435.910
AIST 2D 20 Nov 23:53:27 23:56:46 37° 98° (E) 00:00:04 435.315
SPROUT 20 Nov 23:56:19 23:59:49 25° 69° (ENE) 00:03:19 437.525
ESTCUBE 1 21 Nov 00:05:04 00:09:28 58° 260° (W) 00:13:54 437.505/2401.250
QB50P2 21 Nov 00:06:48 00:09:53 20° 95° (E) 00:12:57 145.880/145.840
VELOX 1 21 Nov 00:28:54 00:32:58 37° 71° (ENE) 00:37:04 145.980
PRISM 21 Nov 00:44:55 00:47:32 16° 294° (WNW) 00:50:09 437.425
RS-15 21 Nov 00:56:02 01:03:32 18° 4° (N) 01:10:51 29.354- 29.394
DUCHIFAT 1 21 Nov 00:56:46 01:00:51 51° 100° (E) 01:04:53 145.980
EO-79 21 Nov 01:03:10 01:07:22 84° 101° (E) 01:11:33 145.935-145.965
NANOSAT C BR1 21 Nov 01:06:52 01:11:04 82° 102° (ESE) 01:15:14 145.865
PCSat 21 Nov 01:10:47 01:16:10 76° 115° (ESE) 01:21:36 145.827
Oscar 19 21 Nov 01:13:44 01:14:35 10° 90° (E) 01:15:26 437.125/150
DX 1 21 Nov 01:16:53 01:20:36 28° 69° (ENE) 01:24:21 434.975-435.025
O/OREOS (USA 219) 21 Nov 01:17:09 01:20:59 27° 257° (WSW) 01:24:46 437.305
50 SAT 21 Nov 01:17:10 01:19:50 24° 72° (ENE) 01:22:32 437.505
POLYITAN 1 21 Nov 01:18:20 01:22:29 64° 284° (WNW) 01:26:37 437.675
NO-84 21 Nov 01:21:59 01:23:03 11° 241° (WSW) 01:24:08 435.350 FM
AIST 2D 21 Nov 01:28:20 01:29:32 11° 293° (WNW) 01:30:45 435.315
SPROUT 21 Nov 01:32:01 01:35:35 25° 264° (W) 01:39:10 437.525
Gurwin Techsat 1B 21 Nov 01:32:39 01:34:41 12° 90° (E) 01:36:42 435.225
QB50P2 21 Nov 01:41:59 01:45:40 30° 289° (WNW) 01:49:20 145.880/145.840
BUGSAT 1 21 Nov 01:52:00 01:55:57 51° 101° (E) 01:59:50 437.445
UKube-1 21 Nov 01:59:47 02:03:58 52° 73° (ENE) 02:08:11 .
VELOX 1 21 Nov 02:06:29 02:09:30 18° 266° (W) 02:12:33 145.980
DUCHIFAT 1 21 Nov 02:34:18 02:36:01 12° 295° (WNW) 02:37:44 145.980
BEESAT 21 Nov 02:41:29 02:45:03 21° 66° (ENE) 02:48:38 436.000
BEESAT 3 21 Nov 02:47:14 02:50:11 20° 111° (ESE) 02:53:10 437.485
Oscar 19 21 Nov 02:49:16 02:54:26 81° 285° (WNW) 02:59:36 437.125/150
50 SAT 21 Nov 02:50:14 02:51:56 14° 266° (W) 02:53:39 437.505
ITUPSAT 1 21 Nov 02:50:22 02:54:17 26° 68° (ENE) 02:58:12 437.325
ISS 21 Nov 02:51:04 02:52:26 12° 18° (NNE) 02:53:47 437.550
DX 1 21 Nov 02:53:14 02:56:44 23° 264° (W) 03:00:15 434.975-435.025
PCSat 21 Nov 02:56:44 03:00:10 17° 314° (NW) 03:03:37 145.827
MOZHAYETS 4 21 Nov 03:07:46 03:12:09 48° 73° (ENE) 03:16:33
M-CUBED/EXP-1 PRIME 21 Nov 03:09:24 03:13:13 26° 101° (E) 03:17:04 437.505
Gurwin Techsat 1B 21 Nov 03:09:48 03:15:08 74° 285° (WNW) 03:20:25 435.225
RS-15 21 Nov 03:10:42 03:21:19 35° 39° (NE) 03:31:24 29.354- 29.394
CUBESAT XI-V 21 Nov 03:19:54 03:22:25 15° 65° (ENE) 03:24:57 437.345
BUGSAT 1 21 Nov 03:29:23 03:30:48 12° 295° (WNW) 03:32:13 437.445
UKube-1 21 Nov 03:38:31 03:40:15 12° 268° (W) 03:42:00 .
nSIGHT-1 21 Nov 03:44:16 03:47:02 26° 30° (NNE) 03:49:48 .
BEESAT 2 21 Nov 03:56:34 04:00:10 33° 114° (ESE) 04:03:48 435.950
BEESAT 21 Nov 04:18:08 04:22:33 37° 261° (W) 04:27:00 436.000
AO-7 21 Nov 04:23:41 04:31:57 61° 104° (ESE) 04:40:11 .
BEESAT 3 21 Nov 04:23:56 04:27:30 31° 307° (NW) 04:31:07 437.485
ISS 21 Nov 04:26:19 04:29:31 52° 37° (NE) 04:32:42 437.550
ITUPSAT 1 21 Nov 04:27:43 04:31:57 31° 263° (W) 04:36:11 437.325
AO-85 21 Nov 04:33:46 04:37:08 29° 114° (ESE) 04:40:36 145.980
ITAMSAT 1 21 Nov 04:40:31 04:45:43 65° 102° (ESE) 04:50:51 435.822/435.867
YUBILEINY 21 Nov 04:42:26 04:45:54 13° 75° (ENE) 04:49:23 435.215
M-CUBED/EXP-1 PRIME 21 Nov 04:43:30 04:47:30 31° 294° (WNW) 04:51:35 437.505
MOZHAYETS 4 21 Nov 04:47:02 04:49:32 14° 268° (W) 04:52:04
CUBESAT XI-V 21 Nov 04:54:51 04:59:18 52° 260° (W) 05:03:49 437.345
KKS-1 21 Nov 05:03:24 05:07:37 43° 72° (ENE) 05:11:53 437.445
nSIGHT-1 21 Nov 05:20:26 05:23:15 29° 227° (SW) 05:26:04 .
RS-15 21 Nov 05:23:12 05:34:58 77° 244° (WSW) 05:46:03 29.354- 29.394
STARS 21 Nov 05:29:17 05:33:12 32° 70° (ENE) 05:37:10 437.465
DOVE 4 21 Nov 05:30:47 05:35:32 36° 96° (E) 05:40:03 437.250
BEESAT 2 21 Nov 05:34:49 05:37:56 21° 311° (NW) 05:41:05 435.950
ISS 21 Nov 06:03:53 06:05:40 14° 231° (SW) 06:07:26 437.550
XW-2B 21 Nov 06:05:59 06:07:32 12° 92° (E) 06:09:05 145.730 - 145.750
SO-50 21 Nov 06:10:08 06:12:03 12° 41° (NE) 06:13:59 436.795
CUTE-I 21 Nov 06:10:54 06:13:57 15° 92° (E) 06:16:57 437.470
AO-85 21 Nov 06:14:29 06:17:32 21° 311° (NW) 06:20:41 145.980
AO-7 21 Nov 06:17:15 06:24:10 30° 302° (WNW) 06:31:05 .
ITAMSAT 1 21 Nov 06:21:41 06:24:35 15° 298° (WNW) 06:27:30 435.822/435.867
NUDT-PHONESAT 21 Nov 06:22:36 06:24:23 13° 93° (E) 06:26:10 437.300
XW-2C 21 Nov 06:30:07 06:33:19 25° 96° (E) 06:36:31 145.795 - 145.815
LilacSat-2 21 Nov 06:31:26 06:34:48 28° 97° (E) 06:38:10 437.200
YUBILEINY 21 Nov 06:32:24 06:41:07 78° 94° (E) 06:49:56 435.215
XW-2F 21 Nov 06:41:01 06:44:27 32° 97° (E) 06:47:53 145.980 - 146.000
KKS-1 21 Nov 06:41:35 06:44:21 16° 267° (W) 06:47:07 437.445
HO-68 21 Nov 06:48:31 06:53:03 17° 91° (E) 06:57:32 435.675
STARS 21 Nov 07:06:12 07:09:34 21° 265° (W) 07:12:56 437.465
DOVE 4 21 Nov 07:08:48 07:12:56 25° 293° (WNW) 07:16:56 437.250
KAITUO 1B 21 Nov 07:09:23 07:13:06 58° 100° (E) 07:16:49 145.475/437.950
STRAND 1 21 Nov 07:16:41 07:21:36 47° 72° (ENE) 07:26:33 437.568
CUBEBUG 2 21 Nov 07:18:27 07:19:46 11° 91° (E) 07:21:04 437.445
XW-2D 21 Nov 07:23:19 07:27:05 59° 284° (WNW) 07:30:50 145.860 - 145.880
XW-2B 21 Nov 07:38:17 07:41:52 40° 286° (WNW) 07:45:26 145.730 - 145.750
RS-15 21 Nov 07:39:27 07:45:08 15° 264° (W) 07:50:43 29.354- 29.394
SO-50 21 Nov 07:48:30 07:53:11 86° 62° (ENE) 07:57:54 436.795
CUTE-I 21 Nov 07:49:04 07:54:22 62° 287° (WNW) 07:59:38 437.470
XW-2A 21 Nov 07:51:03 07:52:05 11° 93° (E) 07:53:07 145.665 - 145.685
NUDT-PHONESAT 21 Nov 07:54:56 07:58:20 35° 287° (WNW) 08:01:43 437.300
CUTE 1.7 + AOD 2 21 Nov 07:59:39 08:03:55 69° 100° (E) 08:08:11 437.475
XW-2C 21 Nov 08:04:32 08:07:18 19° 291° (WNW) 08:10:05 145.795 - 145.815
LilacSat-2 21 Nov 08:06:14 08:08:50 18° 291° (WNW) 08:11:27 437.200
ZACube-1 21 Nov 08:06:59 08:08:25 12° 91° (E) 08:09:51 437.345
FO-29 21 Nov 08:12:40 08:18:49 44° 67° (ENE) 08:25:40 435.910
UWE-3 21 Nov 08:14:02 08:17:39 28° 96° (E) 08:21:15 435.000/436.395/437.385
XW-2F 21 Nov 08:15:57 08:18:16 16° 292° (WNW) 08:20:35 145.980 - 146.000
SEEDS 21 Nov 08:30:49 08:35:05 86° 282° (WNW) 08:39:19 437.485
YUBILEINY 21 Nov 08:32:40 08:38:52 21° 294° (WNW) 08:45:09 435.215
HO-68 21 Nov 08:34:13 08:41:25 77° 288° (WNW) 08:48:33 435.675
AAUSAT CUBESAT 2 21 Nov 08:38:42 08:42:45 47° 99° (E) 08:46:47 437.432
CUBEBUG 2 21 Nov 08:52:39 08:56:41 49° 286° (WNW) 09:00:40 437.445
UNISAT 6 21 Nov 08:53:17 08:55:41 14° 65° (ENE) 08:58:04 437.425
AO-73 21 Nov 08:56:05 08:59:59 39° 98° (E) 09:03:55 145.935
STRAND 1 21 Nov 08:57:26 09:01:00 19° 267° (W) 09:04:34 437.568
TIGRISAT 21 Nov 08:57:40 09:00:07 14° 65° (ENE) 09:02:33 435.000
Oscar 11 21 Nov 09:12:48 09:16:55 41° 98° (E) 09:21:01 .
XW-2A 21 Nov 09:21:50 09:24:52 32° 287° (WNW) 09:27:54 145.665 - 145.685
ZACube-1 21 Nov 09:40:57 09:44:58 49° 286° (WNW) 09:48:59 437.345
UWE-3 21 Nov 09:50:52 09:53:55 20° 291° (WNW) 09:56:58 435.000/436.395/437.385
PRISM 21 Nov 09:56:33 09:59:44 22° 68° (ENE) 10:02:57 437.425
FO-29 21 Nov 09:58:13 10:03:56 32° 267° (W) 10:10:19 435.910
PCSat 21 Nov 10:00:25 10:05:34 42° 57° (ENE) 10:10:41 145.827
AAUSAT CUBESAT 2 21 Nov 10:15:41 10:17:45 14° 294° (WNW) 10:19:51 437.432
EO-88 21 Nov 10:20:39 10:23:30 21° 95° (E) 10:26:19 145.990 - 145.960
Max Valier Satellite 21 Nov 10:21:21 10:24:40 32° 97° (E) 10:27:59 145.860
HO-68 21 Nov 10:24:32 10:27:58 14° 306° (NW) 10:31:24 435.675
UNISAT 6 21 Nov 10:27:27 10:31:56 53° 260° (W) 10:36:22 437.425
AIST 2D 21 Nov 10:28:05 10:29:02 11° 67° (ENE) 10:29:59 435.315
TIGRISAT 21 Nov 10:31:53 10:36:22 52° 260° (W) 10:40:46 435.000
AO-73 21 Nov 10:33:28 10:35:53 15° 293° (WNW) 10:38:18 145.935
DELFI C3 21 Nov 10:46:38 10:50:39 76° 282° (WNW) 10:54:37 145.870
FALCONSAT 3 21 Nov 10:49:37 10:52:54 31° 162° (SSE) 10:56:11 435.103
Oscar 11 21 Nov 10:50:02 10:52:41 16° 294° (WNW) 10:55:21 .
QB50P2 21 Nov 10:58:52 11:00:50 13° 65° (ENE) 11:02:46 145.880/145.840
PRISM 21 Nov 11:31:20 11:34:50 27° 263° (W) 11:38:22 437.425
PCSat 21 Nov 11:44:21 11:48:41 25° 253° (WSW) 11:53:00 145.827
DUCHIFAT 1 21 Nov 11:46:46 11:50:28 30° 71° (ENE) 11:54:09 145.980
EO-79 21 Nov 11:53:27 11:57:32 48° 73° (ENE) 12:01:37 145.935-145.965
EO-88 21 Nov 11:54:13 11:57:01 21° 290° (WNW) 11:59:48 145.990 - 145.960
Max Valier Satellite 21 Nov 11:56:09 11:58:11 14° 292° (WNW) 12:00:14 145.860
NANOSAT C BR1 21 Nov 11:56:50 12:00:53 46° 73° (ENE) 12:04:56 145.865
AIST 2D 21 Nov 11:58:34 12:01:48 37° 262° (W) 12:05:03 435.315
ESTCUBE 1 21 Nov 11:59:09 12:03:15 32° 97° (E) 12:07:18 437.505/2401.250
POLYITAN 1 21 Nov 12:08:34 12:12:48 74° 76° (ENE) 12:17:02 437.675
BEESAT 2 21 Nov 12:16:19 12:18:33 14° 46° (NE) 12:20:46 435.950
LO-87 21 Nov 12:18:23 12:21:56 86° 104° (ESE) 12:25:27 145.935 - 145.965
Oscar 19 21 Nov 12:28:02 12:30:47 15° 62° (ENE) 12:33:32 437.125/150
FALCONSAT 3 21 Nov 12:28:06 12:31:43 56° 177° (S) 12:35:21 435.103
QB50P2 21 Nov 12:32:00 12:36:09 51° 260° (W) 12:40:17 145.880/145.840
BUGSAT 1 21 Nov 12:39:53 12:43:30 29° 71° (ENE) 12:47:07 437.445
BEESAT 3 21 Nov 12:41:25 12:45:23 84° 60° (ENE) 12:49:14 437.485
Gurwin Techsat 1B 21 Nov 12:51:29 12:55:02 18° 64° (ENE) 12:58:35 435.225
AO-85 21 Nov 13:05:23 13:09:06 23° 49° (NE) 13:13:00 145.980
SPROUT 21 Nov 13:18:13 13:22:25 58° 101° (E) 13:26:34 437.525
DUCHIFAT 1 21 Nov 13:23:00 13:26:07 20° 265° (W) 13:29:14 145.980
EO-79 21 Nov 13:31:37 13:33:31 13° 268° (W) 13:35:25 145.935-145.965
AO-7 21 Nov 13:33:16 13:37:29 15° 49° (NE) 13:41:42 .
NANOSAT C BR1 21 Nov 13:34:46 13:36:48 13° 268° (W) 13:38:49 145.865
ESTCUBE 1 21 Nov 13:36:20 13:39:49 22° 292° (WNW) 13:43:17 437.505/2401.250
O/OREOS (USA 219) 21 Nov 13:47:57 13:52:14 40° 105° (ESE) 13:56:33 437.305
BEESAT 2 21 Nov 13:52:40 13:56:37 56° 243° (WSW) 14:00:29 435.950
M-CUBED/EXP-1 PRIME 21 Nov 13:54:17 13:56:51 19° 62° (ENE) 13:59:33 437.505
VELOX 1 21 Nov 13:56:12 14:00:41 85° 282° (WNW) 14:05:07 145.980
Oscar 19 21 Nov 14:04:26 14:09:30 65° 258° (WSW) 14:14:37 437.125/150
FALCONSAT 3 21 Nov 14:07:06 14:10:37 43° 192° (SSW) 14:14:08 435.103
50 SAT 21 Nov 14:07:37 14:10:20 25° 97° (E) 14:13:03 437.505
BUGSAT 1 21 Nov 14:15:38 14:18:49 21° 265° (W) 14:22:00 437.445
ITAMSAT 1 21 Nov 14:22:40 14:23:17 10° 59° (ENE) 14:23:54 435.822/435.867
Gurwin Techsat 1B 21 Nov 14:29:19 14:34:30 55° 260° (W) 14:39:44 435.225
DX 1 21 Nov 14:41:49 14:46:11 66° 102° (ESE) 14:50:31 434.975-435.025
AO-85 21 Nov 14:45:06 14:49:41 47° 244° (WSW) 14:54:34 145.980
NO-84 21 Nov 14:56:10 14:58:53 21° 124° (ESE) 15:01:47 435.350 FM
SPROUT 21 Nov 14:56:18 14:57:45 12° 296° (WNW) 14:59:13 437.525
MOZHAYETS 4 21 Nov 15:06:08 15:08:06 13° 91° (E) 15:10:05
AO-7 21 Nov 15:20:34 15:28:47 71° 68° (ENE) 15:37:01 .
UKube-1 21 Nov 15:23:57 15:28:16 67° 285° (WNW) 15:32:32 .
M-CUBED/EXP-1 PRIME 21 Nov 15:28:09 15:31:04 25° 260° (W) 15:34:11 437.505
O/OREOS (USA 219) 21 Nov 15:28:28 15:31:47 19° 302° (WNW) 15:35:08 437.305
50 SAT 21 Nov 15:40:32 15:42:11 13° 292° (WNW) 15:43:49 437.505
FALCONSAT 3 21 Nov 15:46:53 15:49:15 16° 206° (SSW) 15:51:37 435.103
ITAMSAT 1 21 Nov 15:56:39 16:01:54 84° 72° (ENE) 16:07:09 435.822/435.867
BEESAT 21 Nov 16:19:18 16:24:00 60° 101° (E) 16:28:41 436.000
DX 1 21 Nov 16:20:29 16:21:46 11° 297° (WNW) 16:23:02 434.975-435.025
ITUPSAT 1 21 Nov 16:29:00 16:33:46 75° 103° (ESE) 16:38:30 437.325
NO-84 21 Nov 16:32:29 16:35:57 39° 322° (NW) 16:39:42 435.350 FM
DOVE 4 21 Nov 16:33:53 16:38:16 31° 69° (ENE) 16:42:49 437.250
MOZHAYETS 4 21 Nov 16:41:06 16:45:34 56° 286° (WNW) 16:50:02
YUBILEINY 21 Nov 16:45:06 16:53:04 36° 73° (ENE) 17:00:57 435.215
CUBESAT XI-V 21 Nov 16:52:45 16:57:12 42° 98° (E) 17:01:39 437.345
JUGNU 21 Nov 17:07:18 17:09:33 12° 179° (S) 17:11:48 437.505
XW-2C 21 Nov 17:12:26 17:12:48 10° 65° (ENE) 17:13:11 145.795 - 145.815
LilacSat-2 21 Nov 17:13:30 17:14:53 12° 66° (ENE) 17:16:16 437.200
AO-7 21 Nov 17:15:57 17:22:07 23° 266° (W) 17:28:21 .
HO-68 21 Nov 17:18:34 17:21:04 12° 52° (NE) 17:23:33 435.675
XW-2F 21 Nov 17:21:42 17:23:20 13° 67° (ENE) 17:24:58 145.980 - 146.000
CUTE-I 21 Nov 17:30:42 17:34:47 23° 65° (ENE) 17:38:53 437.470
